[[{"header":{"parameterUnit":"m.s-1","parameterCategory":1,"la1":30.2991,"la2":30.254,"lo1":-89.0895,"lo2":-89.0444,"dy":0.0017,"dx":0.0017,"nx":28,"ny":28,"refTime":"2023-09-28T09:00:00:Z","depth":0,"parameterNumber":2,"parameterNumberName":"U-component_of_WINDS"},"data":[0,0,0,0,0,0,0,0,0,0,0,0,0,0,0,0,0,0,0,0,0,0,0,0,0,0,0,0,0,0,0,0,0,0,0,0,0,0,0,0,0,0,0,0,0,0,0,0,0,0,0,0,0,0,0,0,0,0,-5.0196,-5.0196,0,-5.024,-5.024,-5.0241,-5.0078,-5.0073,-5.0069,-5.0064,-5.0111,-5.0116,-5.0122,0,0,0,0,0,0,0,0,0,0,0,0,0,-4.9972,-4.9977,-5.0195,-5.0196,-5.0197,-5.024,-5.024,-5.0241,-5.0079,-5.0073,-5.0067,-5.0062,-5.0109,-5.0116,-5.0122,0,0,0,0,0,0,0,0,0,0,0,0,0,-5.0048,-4.9978,-5.0195,-5.0121,-5.0115,-5.0239,-5.024,-5.0241,-5.008,-5.0073,-5.0066,-5.0059,-5.0107,-5.0115,-5.0123,-5.0322,0,0,-5.015,-5.0154,0,0,0,0,0,0,0,0,-5.0044,-5.0056,-5.0132,-5.0126,-5.012,-5.0146,-5.0178,-5.0268,-5.0082,-5.0094,-5.0064,-5.0056,-5.0128,-5.0135,-5.0159,-5.0324,-5.0326,-5.0151,-5.0156,-5.0159,-5.0162,0,0,0,0,0,0,0,-5.0039,-5.0053,-5.0213,-5.0133,-5.0126,-5.0086,-5.0088,-5.0194,-5.0151,-5.0092,-5.008,-5.0088,-5.0124,-5.0151,-5.0159,-5.0327,-5.015,-5.0158,-5.0163,-5.0167,-5.0656,-5.0664,0,0,0,0,0,0,-5.0043,-5.005,-5.0211,-5.0214,-5.0063,-5.0096,-5.0099,-5.0145,-5.015,-5.0143,-5.0094,-5.008,-5.014,-5.0149,-5.016,-5.0392,-5.0159,-5.0167,-5.0172,-5.0648,-5.0658,-5.0666,0,0,0,0,0,0,-5.0039,-5.0059,-5.021,-5.0129,-5.0145,-5.0107,-5.016,-5.015,-5.0177,-5.0151,-5.0142,-5.013,-5.0135,-5.0148,-5.0283,-5.0391,-5.0171,-5.0179,-5.0639,-5.0651,-5.0662,-5.0859,0,0,0,0,0,0,-5.0033,-5.0058,-5.0134,-5.0132,-5.015,-5.0332,-5.0167,-5.0156,-5.0192,-5.0174,-5.0182,-5.0177,-5.013,-5.0271,-5.0291,-5.0399,-5.0186,-5.0629,-5.0645,-5.0658,-5.0842,-5.0876,-5.0904,0,0,0,0,0,-5.0026,-5.0188,-5.0138,-5.0159,-5.0243,-5.0339,-5.0349,-5.0291,-5.0201,-5.0276,-5.026,-5.0177,-5.0376,-5.0286,-5.0308,-5.042,-5.0622,-5.064,-5.0657,-5.0828,-5.0869,-5.0904,0,0,0,0,0,0,-5.0203,-5.0186,-5.0131,-5.0297,-5.0321,-5.0311,-5.0404,-5.0337,-5.0386,-5.0368,-5.0294,-5.0298,-5.0446,-5.0446,-5.0346,-5.0612,-5.0484,-5.0507,-5.0606,-5.0645,-5.0675,-5.0672,-5.0193,0,0,0,0,0,-5.0262,-5.0341,-5.0321,-5.047,-5.0484,-5.0443,-5.0482,-5.0436,-5.0457,-5.0466,-5.0459,-5.0484,-5.0552,-5.0598,-5.0659,-5.0842,-5.0841,-5.093,-5.0961,-5.0986,-5.1007,-5.1103,-5.1142,-5.0724,-5.0724,-5.0724,0,0,-5.0384,-5.0384,-5.0438,-5.0505,-5.0518,-5.0602,-5.0452,-5.0547,-5.0608,-5.0481,-5.0607,-5.0604,-5.0626,-5.0785,-5.0855,-5.079,-5.1122,-5.1009,-5.1029,-5.1036,-5.1125,-5.1164,-5.12,-5.0736,-5.0734,-5.0732,0,0,-5.0648,-5.0656,-5.078,-5.0796,-5.0817,-5.0788,-5.0818,-5.0819,-5.0811,-5.0937,-5.0843,-5.0915,-5.1034,-5.1053,-5.1079,-5.1351,-5.1276,-5.1373,-5.1535,-5.1629,-5.1662,-5.1691,-5.1787,-5.1823,-5.1393,-5.1394,-5.1394,0,-5.0796,-5.0918,-5.0853,-5.0954,-5.0986,-5.0874,-5.0999,-5.1018,-5.1058,-5.1083,-5.101,-5.1156,-5.1163,-5.1326,-5.1392,-5.1416,-5.1448,-5.1371,-5.1662,-5.1691,-5.1716,-5.1808,-5.1844,-5.1405,-5.1404,-5.1403,-5.1402,0,-5.1099,-5.1186,-5.1283,-5.1324,-5.1368,-5.1481,-5.1432,-5.1484,-5.1434,-5.1413,-5.1543,-5.1547,-5.1607,-5.1642,-5.1595,-5.1798,-5.1757,-5.1675,-5.1544,-5.1769,-5.1853,-5.1888,-5.1422,-5.1418,-5.1414,-5.1412,0,0,-5.1477,-5.148,-5.1517,-5.1534,-5.1549,-5.1614,-5.1722,-5.178,-5.1826,-5.1857,-5.1946,-5.2049,-5.1972,-5.2001,-5.1955,-5.2038,-5.2252,-5.1945,-5.1944,-5.2002,-5.2476,-5.2538,-5.258,-5.2203,-5.2209,-5.2214,-5.2474,0,-5.1736,-5.1919,-5.1864,-5.2049,-5.2127,-5.2022,-5.2116,-5.2135,-5.2119,-5.2183,-5.2164,-5.2238,-5.2132,-5.2149,-5.2226,-5.221,-5.2347,-5.219,-5.2285,-5.2289,-5.2282,-5.2624,-5.269,-5.2935,-5.2507,-5.2513,-5.2517,0,-5.2063,-5.2107,-5.23,-5.2301,-5.2331,-5.2417,-5.2465,-5.2528,-5.2548,-5.2529,-5.2563,-5.2499,-5.2604,-5.2474,-5.2619,-5.2514,-5.2549,-5.2547,-5.2555,-5.2561,-5.2416,-5.264,-5.3012,-5.3049,-5.2568,-5.2564,-5.256,0,-5.2318,-5.2426,-5.2555,-5.2573,-5.2577,-5.264,-5.2644,-5.2657,-5.2695,-5.2738,-5.2762,-5.2817,-5.2847,-5.2891,-5.2844,-5.2754,-5.2996,-5.2862,-5.2984,-5.2986,-5.304,-5.3037,-5.3423,-5.3064,-5.3063,-5.3063,-5.3062,0,-5.2613,-5.2735,-5.2669,-5.2749,-5.2882,-5.2817,-5.2951,-5.2944,-5.2956,-5.3033,-5.2945,-5.3019,-5.2952,-5.302,-5.2984,-5.3109,-5.3123,-5.3112,-5.3101,-5.312,-5.3121,-5.3142,-5.3123,-5.3072,-5.307,-5.3068,-5.3067,0,-5.2921,-5.2882,-5.3015,-5.3009,-5.301,-5.3109,-5.3103,-5.3176,-5.3153,-5.3251,-5.327,-5.3234,-5.3309,-5.3266,-5.3344,-5.3319,-5.3482,-5.3448,-5.3476,-5.3466,-5.3591,-5.358,-5.4003,-5.4055,-5.3663,-5.3667,-5.367,0,-5.3112,-5.3203,-5.3206,-5.3251,-5.3261,-5.3334,-5.3373,-5.3312,-5.3356,-5.3385,-5.3455,-5.3523,-5.3573,-5.3698,-5.368,-5.3738,-5.3704,-5.3849,-5.3713,-5.3729,-5.3706,-5.3701,-5.371,-5.3876,-5.3881,-5.3885,-5.3888,0,-5.3454,-5.343,-5.3489,-5.3541,-5.359,-5.3628,-5.3659,-5.3701,-5.364,-5.3694,-5.3769,-5.3809,-5.3887,-5.3956,-5.4005,-5.401,-5.394,-5.3931,-5.3962,-5.3982,-5.3994,-5.3989,-5.355,-5.3921,-5.3918,-5.3915,-5.3914,-5.3912,-5.3709,-5.3785,-5.3799,-5.3867,-5.3884,-5.3915,-5.3983,-5.3969,-5.403,-5.4089,-5.4049,-5.4139,-5.4156,-5.4215,-5.423,-5.4299,-5.4241,-5.4286,-5.4298,-5.431,-5.4327,-5.3984,-5.4308,-5.4307,-5.4306,-5.4305,-5.4304,0,-5.4046,-5.405,-5.4113,-5.4159,-5.4213,-5.4141,-5.4172,-5.4222,-5.4301,-5.4323,-5.4374,-5.4461,-5.4527,-5.4513,-5.4572,-5.463,-5.46,-5.4648,-5.4643,-5.4645,-5.4376,-5.4342,-5.4672,-5.4672,-5.4672,-5.4672,-5.4672,-5.4672,-5.4228,-5.4353,-5.4331,-5.4463,-5.4465,-5.4551,-5.4575,-5.4603,-5.462,-5.4721,-5.4775,-5.4765,-5.4773,-5.4832,-5.4889,-5.4883,-5.4909,-5.497,-5.4953,-5.4701,-5.4664,-5.463,-5.4598,-5.4976,-5.4976,-5.5216,-5.5218,-5.522]},{"header":{"parameterUnit":"m.s-1","parameterCategory":1,"la1":30.2991,"la2":30.254,"lo1":-89.0895,"lo2":-89.0444,"dy":0.0017,"dx":0.0017,"nx":28,"ny":28,"refTime":"2023-09-28T09:00:00:Z","depth":0,"parameterNumber":3,"parameterNumberName":"V-component_of_WINDS"},"data":[0,0,0,0,0,0,0,0,0,0,0,0,0,0,0,0,0,0,0,0,0,0,0,0,0,0,0,0,0,0,0,0,0,0,0,0,0,0,0,0,0,0,0,0,0,0,0,0,0,0,0,0,0,0,0,0,0,0,-1.466,-1.466,0,-1.47,-1.4701,-1.4701,-1.4716,-1.4715,-1.4715,-1.4715,-1.4755,-1.4756,-1.4757,0,0,0,0,0,0,0,0,0,0,0,0,0,-1.4592,-1.4593,-1.466,-1.466,-1.4661,-1.47,-1.4701,-1.4701,-1.4716,-1.4715,-1.4715,-1.4715,-1.4755,-1.4756,-1.4757,0,0,0,0,0,0,0,0,0,0,0,0,0,-1.4626,-1.4593,-1.466,-1.4673,-1.4674,-1.47,-1.4701,-1.4702,-1.4716,-1.4715,-1.4715,-1.4715,-1.4754,-1.4756,-1.4758,-1.4773,0,0,-1.4763,-1.4764,0,0,0,0,0,0,0,0,-1.4624,-1.4628,-1.467,-1.4672,-1.4674,-1.4703,-1.4691,-1.4725,-1.4716,-1.47,-1.4715,-1.4715,-1.4738,-1.4741,-1.4749,-1.4775,-1.4776,-1.4763,-1.4764,-1.4765,-1.4766,0,0,0,0,0,0,0,-1.4621,-1.4626,-1.4676,-1.4671,-1.4673,-1.4675,-1.468,-1.4698,-1.4719,-1.4701,-1.4702,-1.4707,-1.4738,-1.4747,-1.475,-1.4777,-1.4763,-1.4765,-1.4766,-1.4767,-1.4816,-1.4816,0,0,0,0,0,0,-1.4617,-1.4624,-1.4675,-1.4677,-1.4648,-1.4677,-1.4682,-1.4694,-1.4719,-1.4723,-1.4707,-1.4708,-1.4744,-1.4748,-1.4751,-1.477,-1.4765,-1.4767,-1.4768,-1.4815,-1.4816,-1.4816,0,0,0,0,0,0,-1.4616,-1.4621,-1.4673,-1.4651,-1.4658,-1.4678,-1.4691,-1.4695,-1.4703,-1.4724,-1.4727,-1.4712,-1.4744,-1.4749,-1.4767,-1.4771,-1.4768,-1.4769,-1.4815,-1.4815,-1.4816,-1.4808,0,0,0,0,0,0,-1.4614,-1.4621,-1.4628,-1.4651,-1.4659,-1.4689,-1.4692,-1.4695,-1.4706,-1.4707,-1.4729,-1.4733,-1.4744,-1.4764,-1.4769,-1.4774,-1.4771,-1.4815,-1.4815,-1.4816,-1.4808,-1.4808,-1.4808,0,0,0,0,0,-1.4611,-1.4624,-1.4628,-1.4634,-1.4668,-1.4689,-1.4694,-1.4707,-1.4707,-1.4713,-1.4726,-1.4732,-1.477,-1.4766,-1.4771,-1.4777,-1.4815,-1.4815,-1.4816,-1.4808,-1.4808,-1.4808,0,0,0,0,0,0,-1.4601,-1.4627,-1.4632,-1.4653,-1.4669,-1.4692,-1.4701,-1.4707,-1.4723,-1.4723,-1.4738,-1.4743,-1.4759,-1.477,-1.4765,-1.4792,-1.4793,-1.4794,-1.4785,-1.4785,-1.4785,-1.4782,-1.4772,0,0,0,0,0,-1.4601,-1.4617,-1.4639,-1.4655,-1.4663,-1.468,-1.469,-1.4698,-1.4715,-1.4722,-1.4736,-1.4751,-1.4766,-1.4776,-1.4792,-1.4809,-1.4813,-1.4815,-1.4815,-1.4815,-1.4816,-1.4825,-1.4826,-1.4818,-1.4818,-1.4818,0,0,-1.4601,-1.4618,-1.4627,-1.4653,-1.4666,-1.4681,-1.4686,-1.4702,-1.4712,-1.4724,-1.4742,-1.4753,-1.4771,-1.4788,-1.4797,-1.4798,-1.4819,-1.4816,-1.4816,-1.4817,-1.4826,-1.4826,-1.4827,-1.4818,-1.4818,-1.4818,0,0,-1.461,-1.4624,-1.4639,-1.4652,-1.4671,-1.4683,-1.4686,-1.4707,-1.4715,-1.4734,-1.4742,-1.4754,-1.4781,-1.4793,-1.4802,-1.4813,-1.4818,-1.4817,-1.4818,-1.4826,-1.4826,-1.4827,-1.483,-1.4831,-1.4818,-1.4818,-1.4818,0,-1.4608,-1.4632,-1.4645,-1.4661,-1.4671,-1.4682,-1.4696,-1.4708,-1.4731,-1.4738,-1.4738,-1.477,-1.4783,-1.4803,-1.4805,-1.4813,-1.4816,-1.4815,-1.4825,-1.4826,-1.4827,-1.483,-1.4831,-1.4818,-1.4818,-1.4818,-1.4818,0,-1.4627,-1.4643,-1.4652,-1.4675,-1.4687,-1.4701,-1.4716,-1.4726,-1.4733,-1.4743,-1.4761,-1.4776,-1.4794,-1.48,-1.4807,-1.482,-1.482,-1.4823,-1.4823,-1.4827,-1.483,-1.4831,-1.4817,-1.4818,-1.4818,-1.4818,0,0,-1.4632,-1.466,-1.4664,-1.4673,-1.4695,-1.4707,-1.4721,-1.4739,-1.4746,-1.4761,-1.4773,-1.4794,-1.4796,-1.4807,-1.4815,-1.4822,-1.4828,-1.4824,-1.4825,-1.4824,-1.4842,-1.484,-1.4841,-1.4832,-1.4832,-1.4832,-1.4841,0,-1.4643,-1.4669,-1.4681,-1.4702,-1.4716,-1.4725,-1.4737,-1.4751,-1.4761,-1.4773,-1.4784,-1.4798,-1.4801,-1.4807,-1.4815,-1.4826,-1.4832,-1.4825,-1.4842,-1.4842,-1.4837,-1.4843,-1.4841,-1.4848,-1.4842,-1.4842,-1.4842,0,-1.4659,-1.4674,-1.4697,-1.4715,-1.4721,-1.4732,-1.4748,-1.4761,-1.4776,-1.4782,-1.4793,-1.4801,-1.4814,-1.4814,-1.4832,-1.4827,-1.4834,-1.4841,-1.4841,-1.4844,-1.4843,-1.4845,-1.4851,-1.4852,-1.4844,-1.4844,-1.4844,0,-1.4659,-1.4685,-1.4701,-1.4709,-1.4731,-1.4738,-1.4748,-1.4763,-1.4772,-1.4786,-1.4792,-1.4807,-1.4815,-1.4826,-1.4837,-1.4835,-1.4854,-1.4854,-1.4859,-1.4858,-1.4863,-1.4862,-1.4869,-1.4867,-1.4867,-1.4867,-1.4867,0,-1.467,-1.4683,-1.4701,-1.4711,-1.4726,-1.4738,-1.4752,-1.4762,-1.4774,-1.4786,-1.4794,-1.4804,-1.4818,-1.483,-1.4838,-1.4852,-1.4855,-1.486,-1.4862,-1.4859,-1.4859,-1.4864,-1.4864,-1.4867,-1.4867,-1.4867,-1.4867,0,-1.4673,-1.4686,-1.4704,-1.4723,-1.4728,-1.4737,-1.4753,-1.4763,-1.4772,-1.4786,-1.479,-1.4805,-1.4819,-1.483,-1.4849,-1.4854,-1.4868,-1.487,-1.4863,-1.4864,-1.4867,-1.4867,-1.4879,-1.4881,-1.4877,-1.4877,-1.4877,0,-1.4679,-1.4689,-1.4709,-1.4717,-1.4726,-1.474,-1.4749,-1.4761,-1.477,-1.4787,-1.4794,-1.4809,-1.4821,-1.4842,-1.4854,-1.4867,-1.487,-1.4873,-1.4872,-1.4869,-1.487,-1.4869,-1.487,-1.4873,-1.4873,-1.4873,-1.4873,0,-1.4688,-1.4694,-1.4707,-1.4722,-1.4733,-1.4746,-1.4758,-1.4764,-1.4778,-1.4788,-1.4802,-1.4812,-1.483,-1.4843,-1.4858,-1.4867,-1.4872,-1.4874,-1.4875,-1.4873,-1.4868,-1.487,-1.4863,-1.4873,-1.4873,-1.4873,-1.4873,-1.4873,-1.4692,-1.4701,-1.4716,-1.473,-1.4741,-1.4752,-1.4762,-1.4772,-1.4784,-1.48,-1.4806,-1.4821,-1.4834,-1.4854,-1.4862,-1.4873,-1.4874,-1.4876,-1.4877,-1.4877,-1.4877,-1.4866,-1.4875,-1.4875,-1.4875,-1.4875,-1.4875,0,-1.4701,-1.4711,-1.4724,-1.4741,-1.4752,-1.4756,-1.477,-1.4778,-1.4791,-1.4803,-1.4815,-1.483,-1.4843,-1.4855,-1.4869,-1.4875,-1.4878,-1.4878,-1.4878,-1.4879,-1.4875,-1.4872,-1.4875,-1.4875,-1.4875,-1.4875,-1.4875,-1.4875,-1.4708,-1.4722,-1.4729,-1.4749,-1.4758,-1.4773,-1.478,-1.479,-1.4799,-1.4817,-1.4827,-1.4835,-1.4847,-1.4861,-1.4873,-1.4876,-1.488,-1.488,-1.4884,-1.488,-1.488,-1.488,-1.4877,-1.4881,-1.4881,-1.4887,-1.4887,-1.4887]}]]